Voltar ao catálogo

CZ-4 DEB

AtivoPO
NORAD 26175·DEBRIS·🇨🇳 China

Lançado Oct 14, 1999 de Taiyuan Satellite Launch Center

Loading…

Próximas Passagens (próximas 24 horas)

TLE

AtualizadoSource: Space-Track

Época: Sep 13, 2026, 12:52 UTC

1 26175U 99057BM  26256.53658072  .00000264  00000-0  19735-3 0  9998
2 26175  98.7271 102.6485 0330500 241.5291 115.2205 13.79423523331235

Acompanhe CZ-4 DEB em tempo real com AllMySat

Download on the App Store